CDT,Max TemperatureF,Mean TemperatureF,Min TemperatureF,Max Dew PointF,MeanDew PointF,Min DewpointF,Max Humidity, Mean Humidity, Min Humidity, Max Sea Level PressureIn, Mean Sea Level PressureIn, Min Sea Level PressureIn, Max VisibilityMiles, Mean VisibilityMiles, Min VisibilityMiles, Max Wind SpeedMPH, Mean Wind SpeedMPH, Max Gust SpeedMPH,PrecipitationIn, CloudCover, Events, WindDirDegrees
2014-6-1,85,76,67,70,68,66,100,78,55,30.03,29.95,29.84,10,10,10,23,11,29,T,3,,173
2014-6-2,84,77,69,67,66,64,90,74,58,29.99,29.92,29.82,10,10,10,24,10,31,T,3,Rain,217
2014-6-3,88,77,66,72,69,66,100,78,55,30.02,29.94,29.80,10,9,2,14,6,18,0.00,2,,185
2014-6-4,80,73,66,70,68,63,100,85,69,29.86,29.79,29.70,10,8,0,38,7,56,1.07,6,Fog-Rain-Thunderstorm,22
2014-6-5,71,68,64,67,64,62,100,91,81,29.99,29.89,29.79,10,8,4,24,8,30,0.09,8,Rain-Thunderstorm,73
2014-6-6,79,73,66,68,65,62,93,81,69,29.99,29.94,29.89,10,9,5,10,5,14,0.00,6,,102
2014-6-7,77,70,63,70,66,61,100,85,69,29.93,29.83,29.72,10,7,1,26,13,35,0.45,6,Rain,162
2014-6-8,73,66,58,66,61,58,100,82,64,30.04,29.99,29.92,10,8,1,14,5,18,0.00,2,,6
2014-6-9,74,68,61,64,62,60,93,81,68,29.95,29.82,29.72,10,6,2,20,11,28,1.42,6,Rain,84
2014-6-10,75,68,61,66,63,60,100,85,69,29.75,29.72,29.68,10,7,0,16,8,21,0.19,8,Fog-Rain-Thunderstorm,27
2014-6-11,73,67,61,65,63,61,100,84,68,29.86,29.79,29.72,10,9,6,13,7,17,0.01,7,Rain,310
2014-6-12,71,65,58,66,62,57,100,89,78,29.97,29.90,29.83,10,8,2,17,6,22,0.03,4,Rain,265
2014-6-13,76,65,54,59,51,46,97,67,36,30.11,30.04,29.98,10,10,10,13,6,17,0.00,0,,24
2014-6-14,79,66,53,57,54,49,86,66,45,30.04,29.95,29.83,10,10,10,22,14,28,0.00,0,,145
2014-6-15,81,74,66,70,65,57,93,78,62,30.00,29.88,29.75,10,10,5,22,10,32,0.07,4,Rain-Thunderstorm,205
2014-6-16,89,79,68,74,70,67,97,77,57,30.04,29.95,29.84,10,10,10,22,12,30,0.00,3,,170
2014-6-17,89,82,74,74,71,69,93,76,59,29.97,29.90,29.85,10,10,10,22,13,28,0.00,1,,184
2014-6-18,90,83,75,74,72,70,87,73,59,29.95,29.92,29.90,10,10,10,20,12,25,0.00,1,,185
2014-6-19,89,81,72,73,71,68,93,76,59,30.03,29.98,29.93,10,10,10,20,10,25,0.00,1,,192
2014-6-20,91,81,70,74,71,68,93,73,52,30.05,29.99,29.94,10,10,10,15,7,21,0.00,2,,254
2014-6-21,90,79,67,74,69,64,100,82,63,29.99,29.93,29.86,10,8,1,25,7,34,0.95,4,Rain-Thunderstorm,154
2014-6-22,89,78,66,73,69,65,93,74,55,29.91,29.86,29.78,10,10,2,22,8,28,0.48,2,Rain-Thunderstorm,202
2014-6-23,83,75,67,71,68,66,97,78,58,29.92,29.87,29.78,10,9,2,15,6,19,0.12,5,Rain-Thunderstorm,273
2014-6-24,86,77,68,71,65,61,100,72,44,29.98,29.94,29.88,10,10,6,16,8,20,0.00,2,,306
2014-6-25,88,76,64,70,64,61,93,68,42,30.06,30.01,29.97,10,10,10,9,5,12,0.00,1,,242
2014-6-26,87,77,67,70,67,66,93,72,51,30.02,29.96,29.88,10,10,7,15,7,19,0.00,0,,167
2014-6-27,87,78,68,72,69,66,97,77,57,29.96,29.90,29.86,10,10,10,17,10,22,0.00,1,,164
2014-6-28,86,77,68,72,70,66,93,79,65,29.96,29.91,29.86,10,10,2,26,12,37,0.11,4,Rain-Thunderstorm,177
2014-6-29,88,79,69,77,72,67,97,83,68,30.00,29.93,29.86,10,10,10,17,10,21,0.02,4,,177
2014-6-30,92,82,71,77,73,59,94,77,59,29.89,29.80,29.68,10,9,6,33,13,46,0.06,3,Rain-Thunderstorm,191